www.pogodaiklimat.ru

Погода и климат >> Архив погоды >> Россия >> Красноярский край >> Ермаковское


ПОГОДА в Ермаковском

  • Прогноз погоды в Ермаковском
  • Монитор погоды в Ермаковском

АРХИВ ПОГОДЫ в Ермаковском

Время (UTC), дата Ветер
(напр.,м/с)
 
Видим.   Явления Облачность Т
(С)
Тd
(С)
f
(%)
Тe
(С)
Тes
(С)
Комфортность P
(гПа)
Po
(гПа)
Тmin
(С)
Tmax
(С)
R
(мм)
R24
(мм)
S
(см)
12 12.02 З 1 н/о 8/0
[Ac trans Ci fib]
-19.8 -24.7 65 -23 -23 1036.8 996.2 -17.0
15 12.02 штиль 0 н/о 3/0
[Ci fib]
-23.6 -26.9 74 -24 -24 1038.9 997.5
18 12.02 штиль 0 н/о 8/0
[Ac trans Ci fib]
-26.5 -29.0 79 -27 -27 1040.2 998.4
21 12.02 штиль 0 н/о 5/0
[Ac trans]
-25.5 -28.0 79 -26 -26 1040.7 999.1
00 13.02 штиль 0 н/о ясно -28.1 -30.5 80 -28 -28 1042.0 999.8 -28.1 23
03 13.02 штиль 0 10 км 10/0
[Cs]
-24.4 -26.9 80 -24 -23 1041.0 999.5
06 13.02 штиль 0 10 км 3/0
[Ci fib]
-12.2 -18.4 60 -12 -8 1039.4 999.8
09 13.02 С 2 20 км ясно -6.8 -15.3 51 -11 -10 1037.2 998.5
12 13.02 штиль 0 н/о 9/4 1000 м
[Sc Ac trans]
-12.4 -15.1 80 -12 -12 1038.0 998.5 -6.4
15 13.02 штиль 0 н/о 6/0
[Ac trans]
-17.0 -18.2 90 -17 -17 1039.0 998.7
18 13.02 штиль 0 н/о 8/0
[Ac trans]
-19.8 -21.7 85 -20 -20 1039.2 998.4
21 13.02 штиль 0 н/о 10/10 1000 м
[Sc]
-18.5 -20.4 85 -19 -19 1039.0 998.6
00 14.02 штиль 0 н/о 10/10 1000 м
[Sc]
-17.4 -19.3 85 -17 -17 1039.1 998.8 -19.8 23
03 14.02 штиль 0 10 км 8/3 1000 м
[Sc Ac trans Cc]
-14.5 -16.5 85 -15 -14 1039.2 999.4
06 14.02 штиль 0 10 км слаб. снег 10/10 1000 м
[Sc]
-8.0 -14.8 58 -8 -8 1038.0 999.1
09 14.02 С 2 20 км {снег} 8/6 1000 м
[Sc Ac cast]
-5.0 -13.4 52 -9 -8 1036.5 998.1
12 14.02 штиль 0 н/о {снег} 10/10 1000 м
[Sc]
-6.2 -11.1 68 -7 -7 1036.7 998.1 -4.6 0.0
15 14.02 СВ 1 н/о 10/10 1000 м
[Sc]
-7.4 -12.3 68 -10 -10 1036.3 997.6
18 14.02 штиль 0 н/о 10/10 1000 м
[Sc]
-7.6 -13.1 65 -8 -8 1035.8 997.1
21 14.02 штиль 0 н/о 10/10 1000 м
[Sc]
-8.1 -13.3 66 -9 -9 1035.6 996.7
00 15.02 штиль 0 н/о 6/6 1000 м
[Sc]
-9.8 -14.5 68 -10 -10 1035.7 996.5 -9.8 22
03 15.02 штиль 0 10 км 3/0
[Ac trans]
-8.2 -12.4 72 -9 -7 1035.7 996.8 -12.0
06 15.02 В 2 20 км ясно -1.1 -13.1 40 -4 -0 1033.3 995.5
09 15.02 СВ 2 20 км ясно +0.8 -13.7 33 -2 -1 1031.7 994.2
12 15.02 С 1 н/о ясно -4.2 -13.7 48 -6 -6 1032.0 993.5 +0.9
15 15.02 З 2 н/о ясно -10.7 -14.3 75 -15 -15 1032.2 993.1
18 15.02 штиль 0 н/о ясно -14.2 -16.2 85 -14 -14 1031.6 992.0
21 15.02 ЮЗ 1 н/о ясно -17.7 -18.9 90 -21 -21 1032.0 991.8
00 16.02 З 1 н/о ясно -18.1 -19.3 90 -21 -21 1031.6 991.3 -18.1 21
03 16.02 штиль 0 10 км ясно -16.7 -18.6 85 -17 -15 1031.4 991.4 -21.1
06 16.02 СВ 1 20 км 3/0
[Ci fib]
-2.3 -14.3 39 -4 +1 1027.1 989.4
09 16.02 ЮВ 2 20 км 4/0
[Ci]
+2.9 -16.0 23 +1 +2 1024.6 987.6
12 16.02 Ю 1 н/о 4/0
[Ci fib]
-1.6 -17.6 28 -3 -3 1024.7 987.3 +3.1
15 16.02 В 2 н/о 5/3 1000 м
[Sc Ci fib]
-6.6 -16.9 44 -10 -10 1025.3 987.2
18 16.02 штиль 0 н/о 4/0
[Cc]
-11.4 -17.6 60 -12 -12 1026.0 987.1
21 16.02 СЗ 1 н/о ясно -13.1 -17.4 70 -15 -15 1026.2 987.0
00 17.02 штиль 0 н/о 6/6 1000 м
[Sc]
-16.4 -19.8 75 -16 -16 1026.6 987.0 -16.4 21
03 17.02 штиль 0 20 км 10/0
[Ac As]
-10.6 -15.9 65 -11 -10 1025.1 986.4
06 17.02 В 2 20 км 10/10 1000 м
[Sc]
-1.5 -14.5 36 -4 -4 1021.1 983.8
09 17.02 В 2 20 км 4/0
[Ac trans]
+1.7 -14.4 29 -1 +1 1017.6 980.8
12 17.02 В 1 н/о 3/3 1000 м
[Sc]
-2.9 -16.3 35 -4 -4 1016.3 978.8 +2.8
15 17.02 штиль 0 н/о 4/0
[Ci fib]
-8.4 -15.4 57 -9 -9 1015.9 977.8
18 17.02 штиль 0 н/о 4/0
[Ci fib]
-12.0 -16.4 70 -12 -12 1015.7 977.0
21 17.02 н/о -15.0
00 18.02 штиль 0 н/о 3/3 1000 м
[Sc]
-17.2 -19.1 85 -17 -17 1015.0 975.6 -17.2 21
03 18.02 штиль 0 10 км ясно -11.3 -17.5 60 -11 -9 1015.4 976.9 -17.5
06 18.02 В 1 20 км 9/0
[Ac lent Cc]
-0.1 -13.4 36 -1 +2 1012.2 975.4
09 18.02 В 1 20 км 9/0
[Ac lent Ci fib]
+3.2 -13.8 27 +3 +4 1010.8 974.4
12 18.02 штиль 0 н/о 10/3 1000 м
[Sc Ac trans Ci fib]
-1.7 -10.9 49 -2 -2 1011.9 974.9 +3.5
15 18.02 З 1 н/о 10/10 1000 м
[Sc]
-4.6 -11.2 60 -6 -6 1012.7 975.3
18 18.02 штиль 0 н/о 10/10 1000 м
[Sc]
-7.4 -11.8 71 -8 -8 1013.7 975.8
21 18.02 З 1 н/о 9/9
[Cb calv]
-9.5 -13.6 72 -12 -12 1015.0 976.8
00 19.02 Ю 1 н/о 8/3 1000 м
[Sc Ac trans Ci fib]
-11.1 -13.9 80 -13 -13 1018.6 980.0 -11.1 21
03 19.02 СВ 1 10 км 3/0
[Ci fib]
-9.6 -13.7 72 -12 -10 1020.9 982.5 -12.7
06 19.02 СВ 1 10 км 3/0
[Ci fib]
+1.5 -11.1 39 +1 +5 1019.4 982.5

 

Местоположение метеостанции Ермаковское (Красноярский край, Россия): широта 53.30 долгота 92.42 высота над уровнем моря 298 м.

В архиве по умолчанию представлена погода в Ермаковском за последнюю неделю. Архивные данные за месяц целиком и за предыдущие месяцы, начиная с января 2011 года, Вы можете получить, выбрав интересующий диапазон дат из раскрывающегося списка и нажав кнопку "Ввод!".


*Определитесь, кто Вы:
робот инопланетянин человек

Внимание! Время в таблицах - всемирное. Для получения местного времени необходимо прибавить поправку, которая равна 7 ч.

Смотрите также архив погоды в соседних городах и на ближайших метеорологических станциях:

Погода в Каратузском (Красноярский край, Россия) (44 км)
Погода в Теси (Красноярский край, Россия) (65 км)
Погода в Минусинске (Красноярский край, Россия) (67 км)
Погода в Курагино (Красноярский край, Россия) (69 км)
Погода в Саяногорске (Хакасия, Россия) (70 км)
Погода в Оленьей Речке (Красноярский край, Россия) (78 км)
Погода в Черемушках (Хакасия, Россия) (87 км)
Погода в Карловом Створе (Хакасия, Россия) (88 км)
Погода в Хакасской (Хакасия, Россия) (90 км)
Погода в Бее (Хакасия, Россия) (104 км)

Пояснения к столбцам:

Ветер - указаны скорость ветра в м/с - средняя за 10 мин, порывы в срок и между сроками (в фигурных скобках) и направление, откуда дует ветер: С - северный, СВ - северо-восточный, В - восточный, ЮВ - юго-восточный, Ю - южный, ЮЗ - юго-западный, З - западный, СЗ - северо-западный.
Видимость - горизонтальная дальность видимости в метрах или километрах. При видимости от 1 до 10 км при отсутствии осадков обычно наблюдается дымка, при ухудшении видимости до 1 км и менее - туман. В сухую погоду видимость может ухудшаться дымом, пылью или мглою.
Явления - указаны атмосферные явления, наблюдавшиеся в срок или в последний час перед сроком; фигурными скобками обозначены явления, наблюдавшиеся между сроками (за 1-3 часа до срока); квадратными скобками обозначены град или гололедные отложения с указанием их диаметра в мм.
Облачность - указаны через наклонную черту общая и нижняя облачность в баллах и высота нижней границы облаков в метрах; квадратными скобками обозначены формы облаков: Ci - перистые, Cs - перисто-слоистые, Cc - перисто-кучевые, Ac - высококучевые, As - высокослоистые, Sc - слоисто-кучевые, Ns - слоисто-дождевые, Cu - кучевые, Cb - кучево-дождевые. Подробнее классификацию облаков см. в Атласе облаков (PDF).
T - Температура воздуха - температура, измеренная на высоте 2 м над землей.
Td - Температура точки росы - температура, при понижении до которой содержащийся в воздухе водяной пар достигнет насыщения.
f - Относительная влажность воздуха - влажноcть воздуха, измеренная на высоте 2 м над землей.
Te - Эффективная температура - температура, которую ощущает одетый по сезону человек в тени. Характеристика душности погоды. При расчете учитывается влияние влажности воздуха и скорости ветра на теплоощущения человека.
Tes - Эффективная температура на солнце - температура, которую ощущает человек, с поправкой на солнечный нагрев. Характеристика знойности погоды. Зависит от высоты солнца над горизонтом, облачности и скорости ветра. Ночью, в пасмурную погоду, а также при ветре 12 м/с и более поправка равна нулю.
P - Атмосферное давление - приведенное к уровню моря атмосферное давление.
Po - Атмосферное давление - измеренное на уровне метеостанции атмосферное давление.
Tmin - Минимальная температура - минимум температуры воздуха на высоте 2 м над землей.
Tmax - Максимальная температура - максимум температуры воздуха на высоте 2 м над землей.
R - Количество осадков - Количество выпавших осадков за период времени, мм. При наведении курсора мыши на число - период времени, за который выпало указанное количество осадков.
R24 - Количество осадков - Количество выпавших осадков за 24 часа, мм.
S - Снежный покров - Высота снежного покрова, см. При наведении курсора мыши на число - состояние снежного покрова и степень покрытия местности в баллах.